Theta_e
333 333 331 330 331 330 331 330 329 327 328 327 328 328 328 328 329 326 325 325 328 327 328 328 329 329 328 328 329 330 330 330 328 327 326 325 326 323 322 323 322 324 324
332 331 330 331 331 330 330 329 329 327 327 327 327 327 328 328 328 327 329 328 329 328 329 328 331 328 327 328 329 329 330 328 326 325 323 323 323 323 323 323 323 324 323
332 329 330 330 332 330 329 328 328 328 327 327 327 327 328 328 328 329 327 326 327 328 329 330 328 329 328 328 330 329 327 327 325 324 324 323 323 323 323 324 324 323 324
332 330 331 331 329 329 329 328 328 327 327 326 328 326 327 328 330 330 330 328 328 327 329 329 328 329 329 326 327 326 327 325 324 324 324 324 325 324 324 323 323 323 321
330 331 330 331 330 329 329 328 327 327 326 328 327 329 329 329 328 330 330 328 327 328 329 328 329 328 329 327 325 327 326 325 325 324 324 324 324 324 324 324 322 321 318
330 332 332 331 331 329 328 327 327 326 327 327 328 327 330 328 327 329 329 329 328 328 328 329 328 328 327 326 325 326 325 325 325 324 324 325 324 325 324 323 319 316 318
331 331 331 331 331 329 328 328 328 328 327 327 327 328 329 323 323 329 329 330 329 328 327 328 329 329 327 327 326 326 326 325 325 325 324 324 324 322 322 318 313 314 313
330 330 331 331 331 330 329 329 329 328 328 329 328 327 327 323 323 326 328 329 329 329 328 328 328 329 329 328 327 326 325 325 325 325 324 324 323 321 320 317 312 315 317
329 330 330 330 330 329 329 330 329 328 327 327 329 328 327 323 326 327 329 329 329 329 328 329 329 329 329 328 328 327 326 325 325 324 324 323 321 320 316 319 322 320 321
329 329 331 331 331 330 331 331 327 327 329 328 328 329 329 325 326 327 329 329 329 329 329 328 329 328 329 329 327 326 326 325 324 323 323 321 321 320 318 323 322 321 321
329 329 331 331 331 331 331 331 329 331 330 329 329 329 326 326 327 328 328 329 328 329 328 327 327 327 328 328 328 326 327 324 324 323 322 320 322 324 321 325 325 322 322
329 330 330 331 332 332 330 330 331 331 328 329 328 329 328 326 327 328 329 329 328 328 327 327 326 325 325 326 327 327 325 324 324 323 322 325 325 324 322 324 324 326 324
328 330 331 330 333 332 330 330 330 329 330 329 330 329 328 326 328 328 329 329 328 327 326 326 326 325 325 327 324 326 326 325 325 324 324 324 325 324 320 324 324 325 326
327 330 331 331 333 332 331 328 329 332 330 332 331 331 329 326 326 328 329 329 329 326 326 326 326 326 328 327 326 326 326 326 326 325 326 326 322 314 321 324 324 325 326
325 329 330 331 331 332 330 327 327 327 331 331 331 330 330 330 327 327 328 329 329 326 326 324 323 323 322 320 325 326 326 327 324 324 324 323 323 323 323 324 322 321 323
325 328 328 330 330 331 330 328 328 325 325 325 332 330 330 331 327 326 328 329 329 326 326 324 325 326 324 322 324 327 326 328 328 327 326 326 327 327 327 327 324 322 321
326 326 327 328 329 331 329 330 328 326 324 324 327 329 329 329 328 325 327 329 328 326 327 324 325 328 327 324 324 325 325 327 327 327 324 325 325 324 325 324 322 320 319
325 326 326 326 329 329 330 330 330 328 326 323 323 324 325 326 328 323 325 327 329 327 329 328 328 327 328 327 326 325 325 324 325 326 325 325 323 323 323 323 321 320 319
326 325 326 326 326 327 330 330 331 330 329 327 320 322 323 323 322 320 319 322 326 326 327 330 330 329 328 328 327 326 326 325 324 324 325 326 325 323 323 322 321 320 320
326 326 326 326 324 325 324 328 330 331 330 329 326 322 317 321 322 321 318 317 316 317 322 326 327 327 327 327 327 327 326 325 325 324 323 325 325 324 323 323 322 321 320
326 326 326 324 327 323 324 323 325 327 330 330 328 327 324 314 317 318 317 317 316 321 321 318 319 324 324 324 323 323 323 324 324 324 323 323 323 325 325 324 324 322 320
328 328 327 326 324 326 323 323 323 324 325 326 326 326 325 324 322 315 314 313 313 315 320 324 323 322 321 323 324 323 322 321 320 319 320 321 323 323 324 324 324 323 321
330 330 329 328 326 324 325 323 323 323 324 324 325 325 325 325 325 324 322 319 317 317 315 315 322 324 323 322 321 322 324 324 323 323 322 320 320 321 322 323 324 323 322
334 332 331 330 328 326 325 324 323 323 323 323 323 324 325 324 324 324 325 323 323 323 323 323 321 318 323 324 323 323 321 321 322 323 323 323 322 322 322 321 322 323 323
334 333 333 332 330 328 326 325 324 323 323 323 323 323 323 323 323 323 324 324 323 324 325 325 325 325 322 321 324 323 323 322 321 320 320 321 322 322 322 322 322 322 322
333 333 333 334 334 331 329 326 325 324 324 323 323 323 324 324 324 324 324 323 323 322 325 325 326 325 325 325 322 322 323 323 322 321 320 319 319 319 320 321 322 322 322
Wind_Speed
16 13 11 7 7 4 6 7 7 8 6 6 2 1 2 3 6 7 4 4 4 4 5 6 5 4 5 5 8 12 17 19 27 24 26 33 38 41 44 47 46 41 34
15 13 8 9 6 7 8 10 6 7 7 4 2 1 3 4 9 8 6 4 3 3 4 4 4 6 8 7 13 18 19 18 30 38 33 41 43 46 47 45 40 33 31
16 8 5 7 7 4 9 8 8 7 6 4 3 3 3 6 6 4 3 5 5 6 7 7 6 10 15 16 16 18 20 29 33 39 38 39 40 37 39 36 34 32 31
15 8 12 5 5 5 8 8 9 7 6 7 2 2 1 2 6 8 4 3 3 2 2 6 9 10 15 19 15 18 30 43 39 41 44 37 30 38 31 35 33 29 28
13 14 6 7 6 9 9 9 8 8 7 6 5 4 4 2 2 4 5 3 4 3 5 9 11 13 15 18 14 19 36 40 40 43 42 34 36 36 35 35 34 31 27
14 11 10 10 11 10 9 11 10 9 8 9 8 6 6 1 6 8 7 6 5 3 5 12 15 16 19 17 18 21 37 44 42 42 40 35 41 38 34 32 33 31 26
14 11 11 12 12 10 9 9 11 11 10 10 8 7 4 4 6 9 8 8 6 5 6 10 15 19 18 20 21 33 34 36 35 41 40 38 38 35 33 31 27 24 23
15 14 13 13 11 11 11 10 10 13 13 9 11 9 6 5 4 7 8 7 9 11 11 11 16 20 20 21 26 36 36 32 36 38 35 35 33 30 27 23 22 18 20
15 15 14 13 11 10 9 9 8 10 12 13 9 8 8 7 6 9 8 7 12 14 13 13 18 22 22 22 27 35 37 32 32 31 29 31 28 23 20 24 22 20 24
17 15 16 11 10 9 10 5 7 7 6 6 9 11 6 8 7 9 11 10 13 17 15 16 22 22 21 19 25 29 36 36 33 33 32 29 22 23 23 17 20 17 22
17 16 16 15 14 12 9 7 6 4 4 7 11 12 7 9 9 12 11 12 12 16 18 24 23 21 18 18 22 22 24 43 31 32 34 30 22 22 24 16 16 13 18
18 18 18 16 13 9 8 10 8 6 1 8 11 12 9 11 9 14 17 18 16 15 24 23 24 23 22 20 22 27 35 34 28 29 30 23 23 24 25 20 22 15 22
19 19 20 14 14 10 9 11 8 8 6 12 14 11 10 10 13 16 19 19 20 19 24 26 26 24 24 22 24 27 32 29 26 28 27 21 21 25 23 19 20 18 19
21 23 20 17 17 11 9 12 8 10 8 11 14 12 9 10 13 18 22 20 20 18 24 24 21 20 17 18 22 26 24 21 22 22 21 19 17 23 22 21 16 20 17
23 22 23 20 18 15 14 10 14 8 12 10 14 13 11 10 11 19 21 22 21 22 23 21 22 19 23 24 27 24 23 22 21 21 21 19 21 24 25 22 19 20 22
26 24 23 21 22 17 18 16 12 14 11 6 16 8 12 11 7 16 21 18 20 23 21 22 22 18 23 24 24 19 16 19 23 22 23 25 28 25 23 21 19 20 22
27 25 23 22 22 21 19 18 18 16 16 14 13 13 13 10 8 15 21 20 15 23 18 21 21 19 19 18 20 17 20 24 17 23 25 25 24 21 22 22 20 21 19
29 26 25 25 23 22 22 21 19 22 21 20 19 18 13 14 13 12 18 21 21 22 20 17 18 21 22 23 23 22 21 20 26 22 23 22 22 24 26 26 24 26 23
30 30 28 25 24 23 23 22 22 22 19 19 23 25 22 18 17 16 19 22 25 25 26 24 22 23 21 24 25 25 25 27 26 28 25 26 25 28 28 30 28 26 26
31 30 29 26 25 25 23 25 24 23 25 23 25 25 30 28 27 26 26 26 25 24 27 28 24 23 24 25 25 26 28 29 30 31 29 29 27 28 30 30 30 29 30
32 30 30 30 25 27 27 27 27 26 25 28 29 29 24 30 33 32 31 32 32 28 25 25 29 29 22 26 27 28 30 29 30 31 32 32 32 32 31 32 30 30 28
34 32 31 35 32 28 31 29 28 28 27 27 28 30 29 27 27 32 32 33 34 34 31 28 27 26 28 27 26 29 30 31 32 33 34 32 32 33 32 31 31 29 32
37 34 34 34 37 33 30 32 31 30 30 29 27 29 31 32 31 29 28 28 28 28 30 34 33 30 30 30 30 31 31 34 34 33 33 33 35 34 31 32 32 31 35
20 36 36 36 39 37 32 34 35 33 32 31 31 31 32 33 34 33 30 27 29 28 25 25 26 36 34 34 34 32 34 35 33 32 31 33 33 32 32 33 31 33 36
20 16 37 37 38 41 39 34 37 36 36 36 34 35 35 34 34 36 36 33 32 34 36 34 30 29 29 36 36 36 36 35 35 35 34 34 33 31 32 32 32 34 37
20 25 19 37 35 40 41 39 38 41 39 39 40 37 38 38 36 36 37 36 35 37 34 37 38 35 32 32 32 37 37 36 36 34 34 34 34 32 33 32 32 36 40
Wind_Direction
161 167 168 169 193 191 168 164 184 188 164 141 168 279 329 293 296 288 271 248 253 213 206 210 179 218 226 194 168 180 167 179 149 145 151 146 156 149 139 136 139 142 144
167 181 178 165 199 200 171 162 184 145 151 145 196 19 259 288 306 304 292 236 236 267 260 215 204 208 178 156 167 170 178 163 142 141 133 136 140 139 137 140 146 145 144
179 176 181 154 190 206 155 162 167 159 150 160 153 222 296 318 331 354 310 186 203 228 225 243 204 171 161 161 147 147 153 147 140 131 130 133 133 136 140 143 147 144 146
175 174 153 180 191 177 141 155 155 160 158 146 173 272 61 356 29 30 40 106 104 160 83 156 167 151 148 147 144 161 156 146 145 138 139 142 138 145 138 137 141 146 145
166 163 156 161 148 142 150 149 154 152 165 141 141 127 74 88 130 70 99 146 131 140 162 132 139 146 142 137 132 158 157 149 146 145 147 146 142 145 146 147 142 145 152
161 147 151 156 150 154 162 159 155 175 166 152 150 136 154 118 96 89 100 80 109 122 96 125 128 135 140 135 125 145 148 152 149 148 147 144 145 150 148 150 150 151 147
161 154 155 154 152 149 136 147 159 160 150 161 155 173 197 138 99 104 95 90 102 123 124 134 137 143 143 146 140 151 154 153 155 153 154 151 147 150 152 152 147 149 151
160 158 156 153 150 153 155 147 163 160 164 168 174 189 233 171 97 129 99 100 104 114 109 123 143 148 152 149 147 162 159 153 158 155 150 149 151 157 157 151 148 147 140
164 162 166 165 153 159 162 174 195 189 189 186 180 182 217 160 122 143 109 106 118 120 112 108 137 142 150 152 152 165 163 162 160 160 153 153 155 156 152 144 155 157 156
167 167 165 155 154 141 159 169 124 129 135 170 184 153 199 144 128 160 130 138 122 124 118 120 138 132 152 155 160 158 171 162 159 163 162 159 155 152 158 161 165 173 162
167 167 166 158 161 174 165 150 119 133 131 136 152 152 158 139 129 147 139 137 136 135 129 128 129 138 145 151 163 164 168 161 161 162 166 170 165 167 168 168 173 187 181
169 169 169 164 164 168 145 143 144 161 125 131 144 148 153 150 143 144 141 140 131 141 140 135 131 129 126 136 153 159 157 164 161 163 168 177 185 175 177 178 188 199 210
175 172 172 172 175 169 151 150 169 154 114 126 124 130 144 144 142 143 140 136 137 145 146 144 139 140 136 129 135 144 159 162 169 177 181 181 180 181 176 193 203 213 210
177 176 176 174 175 172 165 159 166 163 168 151 142 147 153 151 145 147 147 146 153 149 145 143 144 146 149 154 147 148 151 161 170 174 176 180 186 178 187 210 203 203 208
182 179 181 183 182 184 174 170 183 163 199 187 165 157 167 172 167 162 158 162 159 163 156 150 147 150 152 153 153 158 164 177 181 176 181 177 182 190 202 214 219 218 225
185 185 188 188 191 191 188 186 188 184 203 164 181 157 153 180 157 163 160 160 174 172 172 164 155 155 165 164 165 166 175 183 190 190 188 184 193 204 210 220 223 219 225
188 191 195 194 198 194 194 198 201 187 196 203 189 186 189 173 172 169 162 167 170 178 178 179 173 172 185 180 184 189 192 189 181 192 202 209 221 217 205 220 218 221 221
200 199 198 201 202 200 201 203 202 209 199 206 204 205 195 203 201 194 186 182 182 186 180 193 192 191 197 199 200 202 201 203 196 198 211 219 209 209 207 219 226 220 218
204 203 204 210 203 206 205 205 207 207 210 208 212 211 210 200 204 208 206 204 202 200 195 194 212 212 207 211 212 211 212 213 222 214 214 219 220 214 218 227 228 226 222
205 209 209 208 210 211 209 209 210 209 209 204 214 216 210 210 209 209 211 210 213 217 214 208 202 216 220 220 220 222 223 223 223 226 229 223 224 229 227 227 233 226 227
203 212 211 215 214 213 214 213 214 214 212 208 208 225 225 220 219 222 222 219 216 212 223 225 219 210 217 226 227 226 227 227 227 230 233 235 232 229 232 232 233 236 229
206 208 215 215 216 217 215 217 218 216 217 216 214 221 233 230 231 231 231 231 230 227 217 224 235 234 224 220 230 231 230 232 235 236 236 235 234 233 235 239 237 237 237
207 209 213 220 217 216 222 217 216 219 219 220 217 219 229 230 230 234 238 243 239 237 235 229 223 231 235 238 234 232 236 235 234 236 237 238 235 237 239 239 242 237 241
221 215 213 218 216 218 220 221 217 219 220 221 220 221 227 232 230 237 240 244 241 246 245 245 240 231 228 236 235 239 242 241 242 241 241 241 241 241 241 241 244 241 243
243 238 218 217 219 214 219 223 219 218 220 220 222 221 228 234 235 233 232 235 231 235 239 245 246 248 245 233 237 241 240 241 240 241 241 242 244 241 242 243 240 241 241
257 238 260 221 223 221 221 218 222 221 220 222 220 222 221 228 235 236 238 237 235 228 235 238 240 245 249 250 244 239 241 244 244 243 241 242 241 242 244 243 240 241 244